Location: Newark
(19.2128°S, 49.7858°W)
Time: 01:47:18
(UTC+00:00)

Envisat - Pass Details

Date: 31 August 2019
Orbit: 764 x 766 km, 98.1° (Epoch: 19 September)

Event Time Altitude Azimuth Distance (km) Brightness Sun altitude
Rises 21:28:12 0° 152° (SSE) 3,250 5.9 -4.8°
Reaches altitude 10° 21:30:48 10° 141° (SE) 2,317 5.1 -5.4°
Maximum altitude 21:35:13 30° 81° (E) 1,365 3.8 -6.5°
Drops below altitude 10° 21:39:36 10° 21° (NNE) 2,295 5.3 -7.5°
Sets 21:42:08 0° 10° (N) 3,214 6.2 -8.1°
